KD4YQH Weather Reports


time (UTC)temp
F
wind
direction
speed
knots
gust
knots
rain 1hr
in
rain 24hr
in
rain mn
in
humidity
%
barometer
mb
20260505101446 49 57 0.0 0.0 0.00 0.29 0.00 97 1009.9
20260505100441 50 57 0.0 0.0 0.00 0.29 0.00 97 1009.9
20260505095432 50 57 0.0 0.0 0.00 0.29 0.00 96 1009.9
20260505094424 50 57 0.0 0.0 0.00 0.29 0.00 96 1009.9
20260505093417 50 57 0.0 0.0 0.00 0.29 0.00 96 1009.9
20260505092410 50 57 0.0 0.0 0.00 0.29 0.00 96 1009.9
20260505091357 51 57 0.0 0.0 0.00 0.29 0.00 96 1009.9
20260505090409 51 57 0.0 0.0 0.00 0.29 0.00 96 1009.9
20260505085347 51 57 0.0 0.0 0.00 0.30 0.00 96 1009.9
20260505084339 51 57 0.0 0.0 0.00 0.33 0.00 96 1009.9
20260505083305 51 57 0.0 0.0 0.00 0.35 0.00 96 1009.9
20260505082254 52 57 0.0 0.0 0.00 0.35 0.00 96 1009.9
20260505081248 52 57 0.0 0.0 0.00 0.35 0.00 96 1009.9
20260505080232 52 57 0.0 0.0 0.00 0.35 0.00 95 1009.9
20260505075232 52 57 0.0 0.0 0.00 0.35 0.00 95 1009.9
20260505074218 53 57 0.0 0.0 0.00 0.35 0.00 95 1009.9
20260505073203 53 57 0.0 0.0 0.00 0.35 0.00 95 1009.9
20260505072154 53 57 0.0 0.0 0.00 0.35 0.00 95 1009.9
20260505071148 53 57 0.0 0.0 0.00 0.35 0.00 95 1009.9
20260505070140 53 57 0.0 0.0 0.00 0.35 0.00 95 1009.9
20260505065138 53 57 0.0 0.0 0.00 0.35 0.00 95 1009.9
20260505064139 53 57 0.0 0.0 0.00 0.35 0.00 95 1009.9
20260505063130 53 57 0.0 0.0 0.00 0.35 0.00 95 1009.9
20260505062130 54 57 0.0 0.0 0.00 0.35 0.00 95 1009.9
20260505061128 53 57 0.0 0.0 0.00 0.35 0.00 95 1009.9
20260505060120 53 57 0.0 0.0 0.00 0.35 0.00 95 1009.9
20260505053101 54 30 0.0 0.9 0.00 0.35 0.00 94 1009.9
20260505052053 54 30 0.0 0.9 0.00 0.35 0.00 94 1009.9
20260505051051 54 78 0.0 0.0 0.00 0.35 0.00 95 1009.9
20260505040959 55 78 0.0 0.0 0.00 0.35 0.00 92 1009.9
20260505040000 56 78 0.0 1.7 0.00 0.35 0.35 92 1009.9
20260505033934 57 19 0.0 1.7 0.00 0.35 0.35 91 1009.9
20260505031928 57 19 0.0 0.0 0.00 0.35 0.35 90 1009.9
20260505030920 58 19 0.0 0.0 0.00 0.35 0.35 90 1009.9
20260505025913 58 19 0.0 0.0 0.00 0.35 0.35 89 1009.9
20260505024859 58 19 0.0 0.0 0.00 0.35 0.35 89 1009.9
20260505023846 59 19 0.0 0.0 0.00 0.35 0.35 88 1009.9
20260505021818 59 37 0.0 1.7 0.00 0.35 0.35 87 1009.9
20260505015813 60 4 0.0 0.9 0.00 0.35 0.35 86 1009.9
20260505014810 60 50 0.0 0.0 0.00 0.35 0.35 85 1009.9
20260505013757 60 50 0.0 0.0 0.00 0.35 0.35 85 1009.9
20260505012755 61 50 0.0 0.0 0.00 0.35 0.35 83 1009.9
20260505011755 62 50 0.0 0.0 0.00 0.35 0.35 81 1009.9
20260505010751 63 50 0.0 0.0 0.00 0.35 0.35 78 1009.9
20260505005741 64 50 0.0 0.0 0.00 0.35 0.35 76 1009.9
20260505004730 65 50 0.0 0.0 0.00 0.35 0.35 74 1009.9
20260505003729 66 50 0.0 0.0 0.00 0.35 0.35 72 1009.9
20260505002720 67 50 0.0 0.0 0.00 0.35 0.35 70 1009.9
20260505001711 68 50 0.0 0.0 0.00 0.35 0.35 67 1009.9
20260504235658 71 50 0.0 0.0 0.00 0.35 0.35 63 1009.9
20260504234650 72 50 0.0 0.0 0.00 0.35 0.35 58 1009.9
20260504232641 74 140 1.7 3.5 0.00 0.35 0.35 50 1009.9
20260504231641 75 23 0.0 6.1 0.00 0.35 0.35 53 1009.9
20260504230638 75 143 0.0 3.5 0.00 0.35 0.35 47 1009.9
20260504224636 76 91 0.0 6.1 0.00 0.35 0.35 51 1009.9
20260504223621 76 105 2.6 6.1 0.00 0.35 0.35 45 1009.9
20260504221623 77 80 0.0 6.1 0.00 0.35 0.35 45 1009.9
20260504220618 78 358 0.9 6.1 0.00 0.35 0.35 44 1009.9
20260504215611 78 217 0.9 7.8 0.00 0.35 0.35 42 1009.9
20260504214610 78 163 0.0 7.8 0.00 0.35 0.35 44 1009.9
20260504213605 78 46 2.6 7.8 0.00 0.35 0.35 41 1009.9
20260504212602 78 149 3.5 7.8 0.00 0.35 0.35 42 1009.9
20260504211604 78 130 0.9 6.1 0.00 0.35 0.35 44 1009.9
20260504210547 78 201 1.7 7.0 0.00 0.35 0.35 42 1009.9
20260504205545 78 195 1.7 8.7 0.00 0.35 0.35 42 1009.9
20260504204541 78 251 1.7 9.6 0.00 0.35 0.35 41 1009.9
20260504203540 78 171 2.6 7.8 0.00 0.35 0.35 42 1009.9
20260504202541 78 5 2.6 7.8 0.00 0.35 0.35 42 1009.9
20260504200539 78 206 3.5 9.6 0.00 0.35 0.35 41 1009.9
20260504194538 77 127 1.7 8.7 0.00 0.35 0.35 42 1009.9
20260504193536 77 210 1.7 7.8 0.00 0.35 0.35 44 1009.9
20260504192536 76 172 1.7 8.7 0.00 0.35 0.35 47 1009.9
20260504191536 76 240 3.5 11.3 0.00 0.35 0.35 44 1009.9
20260504190535 76 97 0.9 13.0 0.00 0.35 0.35 45 1009.9
20260504185535 76 106 2.6 8.7 0.00 0.35 0.35 46 1009.9
20260504183536 76 257 1.7 7.0 0.00 0.35 0.35 48 1009.9
20260504182535 74 182 1.7 9.6 0.00 0.35 0.35 46 1009.9
20260504175533 73 4 2.6 8.7 0.00 0.35 0.35 48 1009.9
20260504174532 73 278 5.2 12.2 0.00 0.35 0.35 48 1009.9
20260504172532 72 67 0.9 7.8 0.00 0.35 0.35 52 1009.9
20260504171532 71 219 1.7 8.7 0.00 0.35 0.35 50 1009.9
20260504170531 70 227 1.7 9.6 0.00 0.35 0.35 52 1009.9